カタログに戻る

DELTA 1 DEB

運用中SSO
NORAD 21275·DEBRIS·🇺🇸 United States

打ち上げ Jun 12, 1975 から Vandenberg Space Force Base

Loading…

次のパス (今後24時間)

TLE

最新Source: Space-Track

元期: Sep 14, 2026, 05:36 UTC

1 21275U 75052L   26257.23338155  .00000025  00000-0  10619-3 0  9995
2 21275  99.8636 164.3403 0033429 319.3931 193.5005 13.51919713744302

AllMySatでDELTA 1 DEBをリアルタイム追跡

Download on the App Store